Regional Weather Roundup
Issued by NWS

Home | Current Version | Previous Version | Graphics & Text | Print | Product List | Glossary On
Versions: 1 2 3 4 5 6 7 8 9 10 11 12 13 14 15 16 17 18 19 20 21 22 23 24 25 26 27 28 29 30 31 32 33 34 35 36 37 38 39 40 41 42 43 44 45 46 47 48 49 50
000
ASUS44 KMEG 022000
RWRTN
TENNESSEE HOURLY STATE WEATHER ROUNDUP
NATIONAL WEATHER SERVICE MEMPHIS TN
300 PM CDT WED SEP 02 2015

TNZ002-004-019-021-049-052-054-088>092-022100-
WEST TENNESSEE

CITY           SKY/WX    TMP DP  RH WIND       PRES   REMARKS
MEMPHIS INTL   PTSUNNY   92  70  48 S9        30.05F HX  97
NWS MEMPHIS      N/A     91 N/A N/A MISG        N/A
JACKSON        MOSUNNY   89  67  47 CALM      30.05F HX  92
DYERSBURG      SUNNY     90  70  51 E3        30.05F HX  95
UNION CITY     MOSUNNY   90  68  48 CALM      30.04F HX  93
PARIS          SUNNY     90  64  43 NE3       30.06F HX  91
LEXINGTON      MOSUNNY   90  66  45 W3        30.05S HX  92
$$

TNZ008-025-027-028-033-062-065-066-022100-
NORTH MIDDLE TENNESSEE

CITY           SKY/WX    TMP DP  RH WIND       PRES   REMARKS
NASHVILLE      PTSUNNY   92  63  38 E8        30.05F HX  93
CLARKSVILLE    PTSUNNY   91  63  39 N5        30.05F HX  92
COOKEVILLE     SUNNY     90  70  51 VRB3      30.07F HX  95
CROSSVILLE     MOSUNNY   84  63  49 N3        30.12F
$$

TNZ061-075-076-078-094-096-097-022100-
SOUTH MIDDLE TENNESSEE

CITY           SKY/WX    TMP DP  RH WIND       PRES   REMARKS
FAYETTEVILLE   SUNNY     84  66  54 E5        30.07F
TULLAHOMA      SUNNY     86  66  51 W5        30.09F
WINCHESTER     SUNNY     88  68  51 SE3       30.08F HX  91
COLUMBIA       SUNNY     91  72  52 S5        30.05S HX  98
SHELBYVILLE    SUNNY     88  72  58 CALM      30.07F HX  94
$$

TNZ017-018-042-046-047-022100-
NORTHEAST TENNESSEE

CITY           SKY/WX    TMP DP  RH WIND       PRES   REMARKS
TRI CITIES     PTSUNNY   91  63  39 N6        30.07F HX  92
$$

TNZ012-013-036-069-073-074-022100-
CENTRAL EAST TENNESSEE

CITY           SKY/WX    TMP DP  RH WIND       PRES   REMARKS
KNOXVILLE      PTSUNNY   91  63  39 N6        30.04F HX  92
OAK RIDGE      PTSUNNY   89  67  47 CALM      30.07F HX  92
GATLINBURG       N/A     91  64  40 NE7       30.04F HX  93
$$

TNZ083-085-099-022100-
SOUTHEAST TENNESSEE

CITY           SKY/WX    TMP DP  RH WIND       PRES   REMARKS
CHATTANOOGA    CLOUDY    89  67  47 VRB5      30.05F HX  92
$$

SKY/WX REPORTED AS FAIR MEANS FEW OR NO CLOUDS BELOW
12 THOUSAND FEET.




USA.gov is the U.S. government's official web portal to all federal, state and local government web resources and services.